RH
66 66 71 75 78 83 86 87 93 93 91 95 90 88 83 78 78 75 76 76 78 75 72 72 71 73 73 70 70 69 70 70 69 65 62 65 65 68 66 61 57 53 52 52 52 50 47 46 43 42 41 41 41 40 40 40 41 41 42 40 37 35 33 32 31 29 28 28 29 31 33 35 38 42 44 45 46 45 45 44 42 43 44 39 32 38 47 52 56 59 60 58 56 57 55 49 47
66 69 75 77 79 85 88 88 93 94 92 92 88 85 81 78 78 76 74 74 75 72 69 71 71 72 72 68 66 65 66 68 68 64 61 62 63 65 63 58 54 50 50 50 51 50 47 45 41 40 39 39 39 39 40 41 41 39 38 35 33 33 33 33 33 32 32 33 36 39 40 41 43 45 46 48 48 46 47 46 44 44 42 35 33 43 52 56 60 60 60 57 56 59 57 50 46
73 74 76 77 81 86 87 88 92 93 92 90 85 81 79 78 78 76 75 74 73 70 68 72 72 71 70 68 66 64 63 64 64 60 60 63 61 62 62 56 51 49 51 51 49 47 45 43 41 40 39 39 40 40 40 40 38 36 35 35 35 36 38 38 39 39 40 42 44 45 44 45 46 47 49 50 51 48 48 47 45 44 42 37 40 50 56 58 60 59 58 56 58 61 58 52 47
77 75 75 77 82 84 84 88 91 92 90 86 83 80 78 78 76 73 74 74 71 68 68 71 71 70 72 69 65 62 61 60 61 58 59 64 61 59 60 56 52 49 52 53 47 43 41 39 39 38 37 36 36 36 35 35 36 36 36 38 39 41 42 43 44 46 47 48 48 47 47 47 47 49 51 51 51 49 49 48 45 45 44 46 50 55 57 58 58 58 58 59 60 59 56 53 49
76 75 75 78 82 84 86 89 90 92 89 86 86 81 79 81 77 71 73 74 69 67 68 70 69 69 71 69 63 61 60 57 58 59 59 62 61 59 59 56 55 52 51 49 42 39 37 35 34 32 31 30 30 32 33 36 37 38 40 41 41 43 44 45 46 47 48 49 48 47 47 47 49 52 52 51 52 51 50 48 44 43 47 54 57 57 58 58 59 60 60 59 57 54 54 51 47
74 75 76 79 81 83 88 90 89 89 85 83 83 80 79 79 77 72 70 71 68 68 70 69 69 69 67 65 62 62 59 55 56 58 58 59 60 60 57 56 56 54 49 41 35 33 31 32 31 30 30 30 32 35 38 40 40 40 40 41 41 42 44 44 44 45 46 48 47 46 46 46 49 53 51 50 52 52 50 49 46 45 50 56 56 56 56 57 58 59 59 56 54 53 53 50 45
75 76 78 80 81 84 88 88 88 88 81 78 78 79 77 75 79 77 69 69 70 70 71 69 69 67 65 64 62 63 61 55 54 56 58 58 59 58 56 56 54 53 49 37 31 30 30 34 34 33 33 34 36 40 41 42 42 40 39 39 40 40 42 44 43 44 46 47 47 46 46 46 49 52 50 50 52 53 51 50 50 50 53 54 54 55 55 56 57 57 57 57 55 54 52 49 46
75 78 82 82 83 86 87 85 85 87 83 79 77 75 74 77 82 78 70 70 70 69 69 69 67 64 64 64 61 64 63 57 55 55 57 57 57 57 57 56 52 51 45 35 30 30 32 35 36 36 35 36 38 40 41 42 42 40 38 38 38 39 41 43 43 44 45 46 46 47 48 47 48 50 48 49 52 53 52 51 50 51 52 52 54 56 56 56 58 57 57 57 53 51 50 49 46
75 80 86 85 84 87 88 85 83 83 82 81 79 75 78 81 79 75 71 70 68 67 67 66 67 64 64 64 64 68 64 57 55 54 55 57 57 56 56 53 49 46 39 32 30 30 33 35 35 36 36 35 36 37 39 40 40 39 38 36 36 39 40 43 44 44 45 45 46 46 47 47 48 47 47 50 52 52 53 52 49 50 51 52 54 55 56 56 57 57 56 55 52 50 50 47 42
77 81 87 86 84 88 88 85 82 81 81 80 79 78 81 80 73 71 70 68 67 67 67 66 66 65 64 65 68 70 62 56 55 54 53 55 56 56 56 50 47 41 33 30 30 31 34 34 34 34 34 34 36 37 38 39 39 40 39 38 39 41 43 44 45 45 44 45 45 43 44 46 47 46 47 51 53 52 51 48 47 50 52 52 53 54 54 55 56 56 55 54 52 51 48 41 38
80 82 85 88 88 90 89 86 85 84 83 81 78 79 82 75 70 70 68 68 68 65 65 67 67 66 64 64 67 65 59 58 54 51 50 51 52 55 54 48 45 37 30 33 31 32 34 33 33 30 31 33 37 38 39 40 42 42 41 42 44 44 45 46 47 46 45 45 44 43 44 46 46 45 48 51 52 52 50 47 46 50 54 53 55 54 53 54 54 54 54 54 53 49 42 36 33
81 84 84 89 91 91 87 84 84 84 82 80 78 77 79 74 68 70 70 70 68 67 68 68 69 65 61 62 65 62 58 58 54 51 48 48 48 49 48 44 43 35 32 36 32 31 33 32 31 28 30 34 38 39 41 43 44 44 44 44 46 45 48 49 49 46 45 47 47 46 46 47 47 46 49 52 50 51 51 49 48 49 53 55 55 55 54 54 54 54 54 54 52 48 40 35 32
81 84 83 86 86 88 86 82 81 82 80 78 78 77 76 74 69 69 71 69 68 69 71 70 69 63 58 60 63 62 59 54 53 51 48 47 44 43 44 41 43 37 32 37 34 32 33 30 28 27 31 36 39 42 44 46 47 46 46 45 46 46 47 48 47 47 46 48 48 48 49 49 48 47 49 51 50 49 51 51 51 49 50 52 54 55 56 55 55 54 54 54 53 49 43 38 36
79 81 82 82 84 85 83 80 79 80 80 78 76 76 76 73 70 68 69 68 69 69 70 71 68 62 59 58 61 65 62 54 52 51 49 47 41 42 44 42 42 41 35 35 35 33 32 28 26 28 33 38 40 43 45 47 48 47 46 46 47 47 47 48 50 50 49 49 49 49 50 50 51 50 50 51 50 50 51 52 53 51 49 50 54 56 56 56 55 55 55 54 53 51 47 42 39
74 79 82 82 85 83 79 77 77 77 78 78 75 75 75 72 69 68 68 68 68 67 67 69 66 63 58 56 60 63 60 54 52 51 50 46 42 41 42 45 44 44 41 36 36 37 35 31 27 31 36 40 41 43 44 45 46 45 45 46 46 47 48 49 51 53 51 51 51 50 51 52 53 52 52 50 49 49 49 50 52 52 51 51 54 55 55 55 55 56 55 53 51 49 47 44 41
72 77 78 79 81 77 77 75 75 77 75 78 78 75 74 71 70 69 69 66 66 67 65 65 66 64 58 57 60 60 58 53 53 52 49 45 44 41 40 46 44 44 45 41 42 42 39 33 30 35 39 42 44 45 45 42 42 43 43 43 44 46 48 50 51 53 52 51 51 52 53 55 54 53 53 50 49 49 48 48 49 50 50 51 53 53 54 54 55 56 53 50 48 47 45 44 43
71 77 77 81 82 75 76 73 73 76 74 76 77 77 77 71 70 71 69 67 67 68 66 64 67 67 62 61 59 57 55 53 53 52 49 44 44 42 37 41 43 42 44 44 47 48 43 36 36 40 41 45 47 47 46 41 39 40 40 40 42 45 48 50 50 53 53 53 54 54 55 55 54 53 53 51 50 49 48 47 48 49 50 51 51 51 52 54 55 55 53 49 46 43 43 43 44
66 75 80 82 78 72 73 71 71 71 71 75 74 79 80 72 70 71 70 69 68 66 64 64 66 67 65 63 58 54 54 54 54 50 48 44 42 41 35 38 41 40 42 44 48 50 43 38 43 46 45 48 49 47 44 38 37 37 38 41 44 47 49 51 52 55 55 56 57 56 55 55 54 52 50 49 48 48 48 47 47 48 49 50 50 50 51 53 55 55 52 48 46 47 46 45 45
59 65 75 77 71 70 71 71 73 71 71 74 73 76 77 73 69 68 70 69 67 64 63 64 65 66 64 60 57 53 52 53 53 51 48 44 42 40 35 36 39 38 40 44 48 51 43 39 46 49 48 49 49 48 40 35 36 37 41 46 49 50 52 53 53 55 57 59 59 57 55 54 54 52 50 49 48 47 46 45 44 45 46 47 47 46 47 49 52 53 52 49 49 51 50 48 48
55 54 62 69 70 70 69 71 75 72 71 75 75 75 74 74 70 68 73 72 71 70 66 64 64 64 60 57 57 53 50 52 52 51 48 46 43 40 36 35 38 37 38 42 47 52 46 41 47 49 48 48 49 45 36 33 36 41 47 50 52 53 54 54 54 56 59 59 58 58 54 52 53 51 50 48 44 42 40 39 39 40 42 42 41 41 43 46 50 53 54 53 50 50 50 50 50
55 53 57 63 67 68 69 72 74 71 71 75 75 74 74 74 71 70 75 78 80 77 70 68 65 60 55 54 56 53 50 50 50 50 49 47 43 40 37 35 37 36 37 41 44 48 44 41 46 47 48 48 47 41 34 35 39 45 51 52 53 55 55 54 54 56 58 56 55 56 53 49 49 48 49 46 42 40 41 43 44 46 46 46 45 46 49 52 54 54 54 53 52 52 51 51 51
49 51 54 60 63 66 69 71 72 70 72 76 75 76 77 74 71 70 74 78 79 76 72 72 68 58 51 51 54 53 50 48 48 49 50 47 43 40 37 35 36 35 36 40 43 46 41 42 45 45 48 48 46 43 38 38 44 50 52 53 54 55 57 55 55 58 60 58 54 53 52 52 52 50 51 51 50 49 50 50 52 52 51 52 51 49 53 55 56 55 54 51 50 53 52 49 49
43 45 49 55 59 63 66 68 70 69 73 77 76 77 76 74 74 71 71 73 73 71 70 71 68 59 52 50 51 51 50 49 48 48 49 47 42 40 36 35 35 33 35 38 43 45 39 42 46 45 48 49 48 46 40 42 47 50 53 55 53 54 57 57 56 61 65 62 57 53 53 56 54 50 53 56 55 54 53 52 53 53 51 51 52 52 52 52 54 56 55 52 49 51 51 48 47
37 40 45 51 59 64 65 67 67 67 73 77 75 73 72 75 78 73 69 69 69 70 70 70 67 60 55 52 52 52 50 49 48 48 50 47 43 40 36 35 34 33 35 37 41 44 40 42 45 46 46 47 48 45 41 43 46 48 54 57 54 53 57 57 56 60 64 64 63 59 56 57 53 52 56 56 55 57 58 56 56 56 53 51 50 52 52 50 51 53 55 55 53 53 52 50 50
34 35 38 44 55 64 66 66 65 67 74 76 73 71 68 72 75 73 71 67 68 71 71 69 65 60 58 54 52 53 51 50 48 47 48 47 44 40 37 36 34 34 35 36 38 41 41 40 44 46 45 45 46 43 41 43 44 46 53 57 56 55 56 56 54 56 60 63 66 63 59 57 54 56 57 56 56 58 62 60 57 56 55 54 51 51 53 52 51 51 54 56 54 55 53 53 54
32 32 34 37 46 55 61 65 64 66 71 70 68 68 68 69 69 70 72 69 67 70 71 67 63 60 60 58 55 54 52 51 48 45 47 47 46 42 38 36 34 34 36 36 36 38 41 41 43 45 44 45 44 43 41 42 43 45 50 53 56 57 52 51 53 54 56 61 66 66 62 59 57 57 54 56 58 58 59 57 55 54 53 55 55 56 58 56 53 51 54 56 55 57 54 52 53
29 31 32 33 37 40 49 61 64 63 65 65 64 66 69 71 68 68 70 69 67 69 70 67 62 59 61 62 57 54 53 50 48 46 46 46 45 43 39 36 34 35 37 37 34 35 39 41 43 43 40 41 43 42 41 41 43 45 47 47 51 54 47 48 51 50 50 53 60 65 62 58 57 58 55 57 58 56 55 53 54 53 51 55 58 60 60 56 54 54 56 56 55 57 57 53 52
25 29 31 31 33 34 38 49 59 61 61 60 60 62 66 70 69 69 68 66 65 68 69 65 61 60 61 62 56 55 57 53 48 46 45 44 45 44 40 36 34 35 37 37 35 32 34 39 43 42 38 38 42 41 41 42 42 43 42 40 45 47 43 49 51 49 48 46 51 59 60 56 57 60 58 56 55 54 55 54 53 50 52 56 57 56 56 52 51 51 54 56 56 55 55 54 53
22 24 28 28 28 30 32 38 47 55 59 58 57 60 64 67 69 70 68 65 65 67 67 64 63 61 60 61 56 55 60 55 50 48 46 43 43 43 39 37 35 35 36 37 37 31 29 36 41 41 36 36 41 41 40 41 41 41 37 37 42 41 44 51 52 51 48 41 43 51 57 58 57 58 57 53 53 55 54 54 53 51 52 53 52 52 53 52 47 45 48 53 55 53 52 53 53
19 21 23 25 24 24 27 31 36 45 55 57 54 58 63 66 67 68 67 66 67 67 67 65 63 60 57 59 55 54 57 53 52 51 47 43 42 42 39 37 35 34 35 37 37 32 28 32 37 38 33 32 39 39 38 40 40 38 36 38 37 39 47 51 53 54 46 38 40 46 51 54 55 56 53 50 54 56 53 54 52 51 51 51 53 53 53 53 50 47 48 52 54 53 53 53 53
16 18 19 21 23 23 24 27 29 35 46 52 51 55 60 62 62 65 66 66 69 68 66 65 61 58 57 58 54 53 54 52 53 52 48 44 42 42 39 36 36 34 33 36 38 33 29 30 33 35 29 29 37 37 35 38 38 36 38 39 35 40 49 49 51 51 43 37 38 41 43 45 50 52 49 50 55 55 53 54 52 51 53 52 55 55 54 54 54 53 51 52 53 52 54 54 53
13 16 17 19 20 22 23 23 26 29 38 46 48 52 56 58 58 61 64 64 66 68 66 64 62 61 60 61 56 51 53 51 52 53 48 45 42 40 39 36 36 34 32 34 37 34 32 31 31 32 27 27 35 35 33 36 36 36 37 37 36 42 47 47 49 48 44 41 37 39 39 39 43 44 45 51 55 55 55 55 51 52 53 51 54 53 51 53 54 54 53 53 53 52 54 55 54
11 13 15 17 18 19 21 22 25 27 33 40 43 49 54 55 55 56 59 63 63 64 66 65 65 65 62 62 58 52 53 50 49 55 51 44 42 39 38 37 35 35 33 32 35 35 34 32 30 31 26 25 32 33 33 36 35 36 37 37 37 42 45 46 47 48 47 45 40 37 36 38 40 39 42 48 53 54 55 53 50 53 52 52 56 54 51 51 50 50 51 53 54 54 55 55 56
10 12 13 15 16 18 19 21 27 30 32 37 41 47 52 54 54 53 56 63 64 62 64 67 68 67 63 65 62 53 53 47 43 53 53 45 43 40 38 39 36 35 34 32 34 34 35 33 30 30 26 24 31 32 33 36 35 35 37 36 36 40 44 47 47 47 47 47 43 35 33 37 39 39 40 43 51 54 56 53 50 52 52 52 56 55 53 52 50 49 48 49 52 54 55 52 54
10 12 12 14 15 16 18 19 30 36 35 39 44 47 51 53 54 52 55 60 63 62 62 64 67 67 64 67 65 56 50 45 41 48 50 45 44 42 38 39 38 37 35 33 33 33 34 34 30 30 27 24 28 29 29 33 33 34 36 34 34 39 44 46 46 46 46 47 45 35 32 35 37 40 40 42 49 53 56 53 49 50 50 51 54 53 51 48 48 51 48 47 47 49 51 50 51
10 10 10 11 13 14 16 18 28 39 40 41 44 47 50 53 53 51 55 58 59 63 64 64 65 66 66 64 64 61 52 46 45 49 49 43 42 41 37 39 39 37 37 35 33 32 32 32 30 31 29 25 25 25 26 28 28 31 35 32 28 34 43 44 44 46 46 48 45 35 32 35 38 40 39 41 46 49 52 51 49 50 49 52 55 52 48 44 46 49 48 47 46 43 46 50 51
10 9 8 11 13 12 14 17 24 34 39 39 41 44 47 54 57 53 54 57 57 60 64 64 65 64 66 64 63 63 57 52 50 49 49 44 42 42 38 37 38 38 38 37 34 32 30 29 28 30 29 26 23 20 23 24 23 27 34 32 25 29 39 42 43 43 45 47 44 36 33 35 38 40 38 40 44 47 50 49 49 50 48 51 52 48 46 45 46 48 48 46 46 43 46 52 52
12 11 10 11 13 12 14 18 23 29 36 40 40 41 45 52 59 57 54 56 57 59 61 64 66 63 65 67 63 61 60 60 55 50 51 48 44 42 38 36 36 37 38 39 36 34 31 28 28 29 29 28 22 17 19 20 21 23 28 31 27 26 35 41 42 41 42 46 43 36 33 34 38 40 39 39 42 44 46 46 47 49 50 48 46 44 45 46 46 47 48 47 45 44 45 50 51
13 13 12 10 11 12 15 18 23 27 30 37 40 39 42 48 55 56 54 56 58 59 60 62 65 64 66 68 63 60 63 66 60 51 53 52 46 40 37 36 35 36 38 40 39 35 32 29 28 29 28 28 23 17 16 17 19 20 23 29 29 26 30 35 38 39 40 44 40 33 31 32 35 38 37 39 41 43 45 45 45 49 49 45 43 45 47 49 49 47 49 49 47 48 45 45 47
13 13 12 11 10 12 16 18 22 25 27 32 37 39 41 43 48 53 54 56 58 58 57 58 61 62 67 70 64 61 66 70 64 55 54 54 48 40 36 35 36 36 37 40 40 36 32 30 29 29 28 28 23 17 15 15 17 18 21 27 28 26 27 29 32 34 37 41 37 30 30 30 31 34 35 36 40 42 45 46 46 46 45 43 43 45 47 49 51 49 49 50 49 50 50 47 45
14 12 11 11 10 10 13 19 22 24 26 28 33 39 42 41 43 47 50 56 60 59 57 59 59 59 66 70 66 64 66 68 66 60 58 55 49 41 35 35 36 36 36 37 40 38 34 31 30 29 29 28 23 18 15 15 16 18 21 26 27 25 25 26 28 29 32 37 36 30 28 29 29 30 31 33 36 38 39 44 46 46 43 44 45 46 47 50 51 49 48 49 49 50 52 51 44
17 14 11 10 11 9 10 17 24 26 26 26 29 34 36 38 42 45 46 52 58 60 57 60 61 59 65 69 67 67 67 66 65 64 60 55 49 44 37 35 36 35 35 36 38 38 35 33 31 30 30 28 24 18 15 15 15 17 20 23 24 25 24 24 26 27 28 32 35 31 27 27 27 28 29 30 32 32 32 37 42 45 43 42 44 46 48 49 49 48 46 45 47 47 48 49 44
17 16 14 11 11 11 9 13 21 24 26 26 27 28 29 34 42 46 47 50 55 59 57 59 62 62 67 68 66 68 68 64 64 65 61 55 51 46 40 36 35 35 35 36 38 38 36 33 32 31 30 29 25 19 15 16 15 15 17 18 21 24 25 25 24 26 27 27 29 31 29 26 25 27 29 29 30 30 29 32 36 40 41 39 40 42 46 49 48 46 45 43 44 45 45 48 47
16 16 16 14 12 11 9 10 14 16 19 23 27 29 30 34 36 38 43 45 49 56 58 57 61 64 67 69 67 68 66 62 64 64 61 58 55 49 42 37 35 35 35 36 37 37 36 35 34 33 31 29 26 19 15 15 15 15 15 15 17 20 23 25 23 24 27 25 25 28 28 27 25 25 28 29 30 30 29 30 33 35 38 38 37 40 45 50 49 46 44 42 40 42 43 45 47
16 15 16 15 13 12 11 10 10 10 11 16 24 29 33 35 34 33 39 45 46 50 56 56 57 61 65 68 67 65 64 63 64 62 57 58 59 52 45 38 35 35 35 35 36 37 38 35 35 35 32 30 27 20 15 15 15 14 14 14 14 16 18 21 21 21 25 25 24 25 25 27 26 24 27 30 30 31 31 30 32 33 36 36 34 36 42 46 46 43 40 38 37 38 38 39 43
15 15 16 14 13 12 12 11 10 9 9 10 17 27 34 36 35 32 35 44 49 49 51 51 50 54 59 64 65 63 63 63 62 58 54 55 56 51 46 41 37 36 35 35 36 37 39 37 35 34 32 30 28 22 16 15 14 14 14 13 13 14 15 18 19 18 20 22 24 24 23 25 28 26 25 29 30 30 31 31 31 33 34 35 33 35 40 41 41 38 34 34 36 36 35 35 38
16 16 15 14 13 13 14 14 11 10 10 8 10 19 29 32 33 33 33 36 43 46 48 47 46 49 54 60 65 64 62 62 61 59 56 55 54 50 49 46 42 39 37 36 36 37 39 38 36 35 33 31 28 24 19 15 14 13 13 13 13 13 14 17 18 16 16 18 21 23 22 21 27 29 25 26 29 30 31 31 31 32 33 34 32 34 39 39 39 37 33 31 33 34 35 34 35
18 17 15 13 14 14 15 16 16 14 13 10 8 11 17 23 24 29 33 32 32 40 46 47 46 45 48 55 62 63 61 59 59 60 57 55 52 50 50 49 45 41 39 39 37 37 40 40 37 36 34 32 29 26 21 17 15 14 12 12 13 13 13 14 16 17 15 15 17 19 20 18 21 28 28 27 27 27 29 31 31 33 33 33 32 32 35 38 39 39 38 34 30 30 33 34 36
19 17 15 14 15 16 18 18 18 17 13 10 9 8 10 13 15 19 27 29 30 35 41 45 44 44 45 48 53 59 61 59 60 60 57 54 50 48 48 49 46 41 40 41 38 38 41 41 38 37 35 32 30 28 24 20 17 15 13 12 12 13 13 14 14 16 15 14 15 16 17 17 17 21 27 30 30 28 28 28 30 32 32 32 31 31 32 35 37 40 41 38 34 29 30 33 35
18 16 15 16 16 18 19 19 18 18 15 12 10 9 8 8 9 11 16 25 31 34 36 39 42 44 46 46 48 56 60 59 60 59 56 53 51 49 48 48 47 42 39 39 38 38 40 40 39 37 35 33 31 29 26 22 19 17 15 14 13 12 13 13 13 15 15 14 14 14 15 16 15 16 20 24 30 32 31 28 27 29 30 30 31 32 31 32 33 36 38 37 38 35 30 30 33
17 15 15 15 16 18 19 18 18 18 16 14 12 10 10 8 7 7 8 15 26 34 34 37 41 44 48 50 49 54 57 55 55 56 55 54 53 50 48 47 46 43 39 36 36 36 37 37 37 37 36 34 33 31 28 24 20 18 16 15 14 13 13 13 13 13 15 15 14 14 14 15 15 16 15 17 23 30 34 32 27 27 29 29 29 30 31 31 31 32 32 32 35 36 31 29 31
17 15 15 16 16 16 18 17 19 19 17 17 15 12 10 9 8 7 7 9 17 28 32 35 41 42 44 49 51 53 56 52 50 52 52 54 53 51 49 47 45 44 40 35 32 31 32 33 34 35 35 33 32 31 27 24 22 20 18 17 15 15 14 14 14 13 14 15 14 13 13 14 14 15 16 16 17 23 30 33 29 26 27 29 29 29 28 29 29 30 30 30 31 33 31 30 31
21 19 17 16 16 16 18 18 18 20 20 21 21 19 15 12 10 8 8 9 11 19 23 28 38 42 40 43 47 50 54 51 48 48 49 52 54 53 51 48 47 46 43 39 35 32 31 31 32 33 34 33 32 31 27 24 23 22 21 20 18 16 16 16 15 15 15 15 15 14 13 13 14 15 17 19 18 19 23 28 28 25 25 27 29 29 28 27 28 28 28 29 29 31 32 31 30
22 26 24 20 18 18 20 23 23 20 20 21 23 24 22 19 16 12 9 9 10 13 16 19 31 42 41 38 40 45 49 49 47 47 48 52 55 55 53 51 49 48 47 44 38 37 36 33 31 33 33 33 32 30 27 24 23 23 22 21 21 19 18 18 17 16 16 16 16 15 15 13 13 15 18 21 23 21 21 25 26 24 23 24 27 28 28 27 26 27 28 28 29 30 31 31 30
18 23 28 28 26 24 23 24 24 22 21 23 24 25 25 23 21 19 16 13 11 12 14 16 25 37 42 39 38 42 46 48 47 47 48 51 55 56 55 52 50 49 49 46 42 44 47 41 35 35 33 31 31 29 27 25 23 22 21 21 22 21 20 20 19 18 16 17 17 16 15 15 13 13 16 20 23 24 23 24 24 24 23 23 25 26 26 27 27 27 27 27 28 29 30 30 30
22 18 23 29 32 34 32 28 23 20 23 27 28 26 25 24 23 22 23 22 18 16 17 17 19 26 36 40 38 38 43 46 46 47 48 51 54 56 55 52 50 49 48 48 46 47 51 48 42 40 36 34 33 30 27 25 22 21 21 21 21 22 21 20 20 20 18 17 18 17 16 16 14 14 15 17 21 24 25 25 23 22 23 22 22 22 23 24 26 26 26 26 26 27 28 29 29
33 24 20 25 30 33 33 32 28 22 21 25 30 30 25 23 23 21 24 27 25 22 20 18 17 19 24 32 37 37 37 38 41 45 48 51 53 53 53 52 50 49 49 48 47 48 53 55 50 44 40 36 33 31 28 25 22 22 21 21 21 20 21 21 20 21 19 17 17 18 17 16 16 16 16 16 18 20 25 27 24 21 21 21 21 21 21 22 23 24 24 24 25 28 29 29 29
38 35 28 26 31 33 33 34 33 29 23 21 27 32 26 22 22 21 23 28 28 25 23 18 18 19 19 23 31 33 31 31 34 38 43 48 51 50 50 50 50 50 49 49 48 49 54 56 55 49 44 38 35 33 29 24 22 21 21 20 20 20 20 20 20 20 19 18 17 17 16 16 17 18 17 18 17 17 21 25 25 23 21 22 22 22 22 21 21 21 22 22 24 26 27 27 28